Content
SEND FEEDBACK

Daily
Averages
Monthly
Summary
Spain

PALMA, SPAIN


Home > Europe > Spain
Elevation: 26 feet     Latitude: 39 33N     Longitude: 002 44E

WEATHER
 
SELECT A DAY
Number of Records: 309,080;   Date Range: 7/1/96 - 12/18/14
 
SHARE

PRINT THIS DATA

[ ← Previous Day ]
WEATHER ALMANAC - MARCH 25, 2013
[ Next Day → ]
[ °C ]   °F
Weather ElementAverageHighLow
Temperature58.6 °F66.2 °F (1:30 pm)44.6 °F (4:00 am)
Dewpoint47.2 °F53.6 °F (7:30 pm)39.2 °F (2:00 pm)
Humidity66.6 %93 % (3:00 am)37 % (2:00 pm)
Barometer29.70 in29.77 in (11:00 am)29.59 in (1:00 am)
Wind Speed12.2 mph21.9 mph (3:00 pm)
Wind Gust28.8 mph (9:30 am)
Weather ElementAverage
Visibility7.3 mi
Wind DirectionSW (222.9 °)

Weather ElementTotal
Precipitation---
Heating Degree Days9.6 (Base 65)
Growing Degree Days5.4 (Base 50)
Averaged from 49 records on March 25, 2013
WEATHER CONDITIONS BREAKOUT
WIND DIRECTION BREAKOUT
WEATHER BY HOUR - MARCH 25, 2013
[ °C ]   °F
Local TimeTemperatureDewpointHumidityBarometerVisibilityWind DirectionWind SpeedGust SpeedPrecipitationEventsConditions
12:30 AM51.8 °F46.4 °F82 %29.62 in6.2 miVariable1.2 mphPartly Cloudy
1:00 AM49.0 °F43.0 °F74 %29.59 in16.0 miEast (100°)1.2 mphScattered Clouds
1:00 AM50.0 °F46.4 °F87 %29.62 in6.2 miSouth (170°)3.5 mphPartly Cloudy
1:30 AM51.8 °F48.2 °F88 %29.62 in6.2 miVariable2.3 mphPartly Cloudy
2:00 AM50.0 °F46.4 °F87 %29.62 in6.2 miVariable1.2 mphPartly Cloudy
2:30 AM50.0 °F46.4 °F87 %29.62 inCalmClear
3:00 AM48.2 °F46.4 °F93 %29.62 inNNW (340°)4.6 mphClear
3:30 AM48.2 °F46.4 °F93 %29.62 inVariable2.3 mphClear
4:00 AM44.6 °F42.8 °F93 %29.62 inESE (110°)1.2 mphClear
4:30 AM46.4 °F42.8 °F87 %29.62 inCalmClear
5:00 AM53.6 °F48.2 °F82 %29.65 inNW (320°)6.9 mphClear
5:30 AM57.2 °F46.4 °F67 %29.65 inNW (320°)8.1 mphClear
6:00 AM57.2 °F46.4 °F67 %29.68 in6.2 miNW (310°)9.2 mphPartly Cloudy
6:30 AM57.2 °F46.4 °F67 %29.68 in6.2 miNW (310°)8.1 mphPartly Cloudy
7:00 AM55.0 °F43.0 °F55 %29.65 in16.0 miNW (310°)4.6 mphScattered Clouds
7:00 AM57.2 °F46.4 °F67 %29.68 in6.2 miNW (310°)4.6 mphPartly Cloudy
7:30 AM57.2 °F48.2 °F72 %29.71 in6.2 miWest (260°)3.5 mphPartly Cloudy
8:00 AM59.0 °F46.4 °F63 %29.71 in6.2 miVariable2.3 mphPartly Cloudy
9:00 AM60.8 °F44.6 °F55 %29.71 in6.2 miNW (320°)15.0 mphPartly Cloudy
9:30 AM62.6 °F44.6 °F52 %29.74 in6.2 miNW (320°)17.3 mph28.8 mphPartly Cloudy
10:00 AM62.6 °F41.0 °F45 %29.74 in6.2 miWNW (300°)19.6 mphPartly Cloudy
11:00 AM62.6 °F42.8 °F48 %29.77 in6.2 miNW (320°)20.7 mphPartly Cloudy
11:30 AM62.6 °F42.8 °F48 %29.77 in6.2 miNNW (330°)17.3 mphPartly Cloudy
12:00 PM64.4 °F42.8 °F45 %29.77 in6.2 miNW (310°)15.0 mphPartly Cloudy
12:30 PM64.4 °F50.0 °F59 %29.77 in6.2 miWSW (250°)18.4 mphPartly Cloudy
1:00 PM64.0 °F46.0 °F42 %29.71 in19.0 miWSW (250°)20.7 mphScattered Clouds
1:00 PM64.4 °F50.0 °F59 %29.77 in6.2 miWSW (250°)18.4 mphPartly Cloudy
1:30 PM66.2 °F50.0 °F56 %29.74 in6.2 miWest (260°)16.1 mphPartly Cloudy
2:00 PM66.2 °F39.2 °F37 %29.74 in6.2 miWSW (250°)13.8 mphPartly Cloudy
2:30 PM66.2 °F48.2 °F52 %29.74 in6.2 miSW (220°)19.6 mphPartly Cloudy
3:00 PM62.6 °F50.0 °F63 %29.74 in6.2 miWSW (240°)21.9 mphPartly Cloudy
3:30 PM62.6 °F48.2 °F59 %29.74 in6.2 miWSW (240°)20.7 mphPartly Cloudy
4:00 PM64.4 °F48.2 °F56 %29.74 in6.2 miWSW (240°)20.7 mphPartly Cloudy
4:30 PM62.6 °F46.4 °F55 %29.74 in6.2 miWSW (250°)21.9 mphPartly Cloudy
5:00 PM62.6 °F46.4 °F55 %29.71 in6.2 miWest (260°)20.7 mphPartly Cloudy
5:30 PM62.6 °F46.4 °F55 %29.71 in6.2 miWest (260°)18.4 mphPartly Cloudy
6:00 PM60.8 °F48.2 °F63 %29.71 in6.2 miWSW (240°)15.0 mphPartly Cloudy
6:30 PM59.0 °F50.0 °F72 %29.71 in6.2 miSW (230°)10.4 mphPartly Cloudy
7:00 PM58.0 °F46.0 °F55 %29.73 in17.0 miWSW (250°)12.7 mphPartly Cloudy
7:00 PM59.0 °F50.0 °F72 %29.71 inWSW (240°)9.2 mphClear
7:30 PM59.0 °F53.6 °F82 %29.71 in6.2 miSW (230°)5.8 mphPartly Cloudy
8:00 PM59.0 °F51.8 °F77 %29.71 in6.2 miWSW (240°)11.5 mphPartly Cloudy
8:30 PM60.8 °F51.8 °F72 %29.71 in6.2 miWSW (250°)17.3 mphPartly Cloudy
9:00 PM60.8 °F51.8 °F72 %29.71 in6.2 miWSW (250°)15.0 mphPartly Cloudy
9:30 PM60.8 °F51.8 °F72 %29.71 in6.2 miWSW (240°)16.1 mphPartly Cloudy
10:00 PM60.8 °F51.8 °F72 %29.71 in6.2 miWSW (250°)18.4 mphPartly Cloudy
10:30 PM60.8 °F50.0 °F68 %29.68 in6.2 miWest (260°)21.9 mphPartly Cloudy
11:00 PM62.6 °F50.0 °F63 %29.68 in6.2 miWest (260°)21.9 mphPartly Cloudy
11:30 PM60.8 °F51.8 °F72 %29.65 in6.2 miWSW (250°)21.9 mphPartly Cloudy
Hourly data recorded from LEPA, located miles away from Palma, Spain







STORIES FROM OUR PARTNERS